Zurück zum Katalog

STARLINK-6120

AktivKommunikationVLEO
NORAD 56131·PAYLOAD·🇺🇸 United States

Gestartet Mar 29, 2023 von Cape Canaveral Space Force Station

Loading…

Nächste Überflüge (nächste 24 Stunden)

TLE

AktuellSource: CelesTrak SupGP

Epoche: Sep 14, 2026, 21:19 UTC

1 56131C 23046AQ  26257.88868056 -.00031896  00000+0 -11555-2 0  2576
2 56131  42.9995 158.5446 0001219 251.9012 156.6515 15.27589275    13

Verfolge STARLINK-6120 in Echtzeit mit AllMySat

Download on the App Store